Volver al catálogo

PEGASUS DEB

ActivoPO
NORAD 39914·DEBRIS·🇺🇸 United States

Lanzado May 19, 1994 desde Vandenberg Space Force Base

Loading…

Próximos Pases (próximas 24 horas)

TLE

ActualizadoSource: Space-Track

Época: Sep 14, 2026, 06:01 UTC

1 39914U 94029AFM 26257.25114927  .00002286  00000-0  42468-3 0  9998
2 39914  81.3386 243.6969 0325403 211.5183 146.6150 14.36010417631947

Sigue PEGASUS DEB en tiempo real con AllMySat

Download on the App Store